Regional Weather Roundup
Issued by NWS

Home | Current Version | Previous Version | Text Only | Print | Product List | Glossary On
Versions: 1 2 3 4 5 6 7 8 9 10 11 12 13 14 15 16 17 18 19 20 21 22 23 24 25 26 27 28 29 30 31 32 33 34 35 36 37 38 39 40 41 42 43 44 45 46 47 48 49 50
000
ASUS42 KKEY 252110
RWRKEY

FLORIDA REGIONAL WEATHER ROUNDUP FOR THE FLORIDA KEYS
NATIONAL WEATHER SERVICE KEY WEST FLORIDA
500 PM EDT WED MAY 25 2016

...SOUTH FLORIDA AND THE KEYS...

CITY           SKY/WX    TMP DP  RH WIND       PRES   REMARKS
FORT MYERS     MOSUNNY   88  63  43 E10G22    30.09F
SW REGIONAL AP MOSUNNY   90  64  42 E13       30.10F HX  91
NAPLES         PTSUNNY   88  64  44 NE15G21   30.08F
MIAMI          MOSUNNY   84  66  54 E18       30.12F
WEST KENDALL   SUNNY     85  65  51 E17G30    30.12F
HOMESTEAD      MOSUNNY   83  68  60 NE17G25   30.11F
MARATHON       SUNNY     86  68  54 E15G25    30.09F
BOCA CHICA NAS MOSUNNY   82  73  74 E15       30.09F
KEY WEST INTL  MOSUNNY   82  71  69 E14       30.09F

...INTERNATIONAL WEATHER...

CITY           SKY/WX    TMP DP  RH WIND       PRES   REMARKS
NASSAU BAHAMAS PTSUNNY   84  72  65 N14       30.12F
CANCUN MEXICO  MOSUNNY   88  77  70 E9        30.01F HX 100
COZUMEL MEXICO MOSUNNY   86  79  79 NE14      29.99F HX  99

ADJACENT COASTAL WATERS...

STATION/POSITION TIME  SKY/WX   TEMP    WIND        PRES    WAVE
                                AIR SEA DIR/SP/G            HT/PER
                 (UTC)          (F)     (DEG/KT/KT) (MB)    (FT/S)
PULASKI SHOAL LI 2100            81     100/ 16/ 18 1018.8F
SAND KEY         2050            78     120/ 19/ 22 1019.0F
SOMBRERO KEY     NOT AVBL
LONG KEY         2100            82 86   90/ 19/ 21 1019.3F
MOLASSES REEF    2100            81      80/ 19       N/A
FOWEY ROCKS      2100            80 84   50/ 16/ 17 1020.6F

$$



USA.gov is the U.S. government's official web portal to all federal, state and local government web resources and services.